Regional Weather Roundup
Issued by NWS Cleveland, OH

Home | Current Version | Previous Version | Text Only | Print | Product List | Glossary Off
Versions: 1 2 3 4 5 6 7 8 9 10 11 12 13 14 15 16 17 18 19 20 21 22 23 24 25 26 27 28 29 30 31 32 33 34 35 36 37 38 39 40 41 42 43 44 45 46 47 48 49 50

000
ASUS41 KCLE 070702
RWRCLE
OHIO REGIONAL WEATHER ROUNDUP
NATIONAL WEATHER SERVICE CLEVELAND, OH
300 AM EDT THU MAY 07 2015

NOTE: "FAIR" INDICATES FEW OR NO CLOUDS BELOW 12,000 FEET WITH NO
SIGNIFICANT WEATHER AND/OR OBSTRUCTIONS TO VISIBILITY.

OHZ001>008-015>018-024>027-034-035-043-044-070800-
   NORTHWEST OHIO

CITY           SKY/WX    TMP DP  RH WIND       PRES   REMARKS
DEFIANCE       CLEAR     57  54  89 E3        30.15F
FINDLAY        CLEAR     59  54  83 E3        30.14F
TOLEDO EXPRESS CLEAR     53  52  96 CALM      30.15F FOG
TOLEDO EXEC    CLEAR     53  50  89 CALM      30.17S FOG
LIMA           CLEAR     58  56  93 E6        30.14F
$$

OHZ009>014-019>023-028>033-038-089-070800-
   NORTHEAST OHIO

CITY           SKY/WX    TMP DP  RH WIND       PRES   REMARKS
CLE-HOPKINS    PTCLDY    54  51  90 CALM      30.18S FOG
CLE-LAKEFRONT  CLEAR     52  50  93 CALM      30.15S
CUY CO. ARPT   NOT AVBL
LORAIN-ELYRIA  CLEAR     50  50 100 S3        30.17R FOG
ASHTABULA      MOCLDY    51  50  96 CALM      30.17S
AKRON-CANTON   CLEAR     61  55  81 NE3       30.16S
WOOSTER        CLEAR     52  50  93 CALM      30.17S FOG
MANSFIELD      CLEAR     58  56  93 E3        30.16F
YOUNGSTOWN     CLEAR     56  54  93 CALM      30.16F
$$

OHZ042-051>053-060>062-070>072-077>081-070800-
  SOUTHWEST OHIO

CITY           SKY/WX    TMP DP  RH WIND       PRES   REMARKS
CINC-COVINGTON CLEAR     66  54  65 CALM      30.10F
CINC-LUNKEN    CLEAR     57  57 100 CALM      30.10F FOG
HAMILTON       CLEAR     58  56  93 CALM      30.11F
DAYTON         CLEAR     66  58  75 E6        30.14F
WRIGHT-PAT AFB NOT AVBL
DAYTON GENERAL CLEAR     67  56  67 E7        30.11F
WILMINGTON     CLEAR     64  53  67 NE7       30.12F
$$

OHZ036-037-039>041-045>050-054>059-063>069-073>076-082>088-070800-
  CENTRAL AND SOUTHEAST OHIO

CITY           SKY/WX    TMP DP  RH WIND       PRES   REMARKS
COLUMBUS       CLEAR     65  58  78 NE5       30.13S
OSU AIRPORT    CLEAR     63  57  81 N3        30.13F
BOLTON FIELD   NOT AVBL
RICKENBACK AFB NOT AVBL
NEWARK         CLEAR     58  56  93 CALM      30.14S
MARION         CLEAR     57  55  93 CALM      30.15F FOG
LANCASTER      CLEAR     58  55  90 CALM      30.13F
ZANESVILLE     CLEAR     60  56  86 CALM      30.14S
NEW PHILLY     CLEAR     60  56  86 CALM      30.15F
$$


USA.gov is the U.S. government's official web portal to all federal, state and local government web resources and services.